Вернуться в каталог

STARLINK-34705

АктивенСвязьSSO
NORAD 64932·PAYLOAD·🇺🇸 United States

Запущен Jul 26, 2025 с Vandenberg Space Force Base

Loading…

Ближайшие Пролёты (ближайшие 24 часа)

TLE

СвежийSource: CelesTrak SupGP

Эпоха: Sep 14, 2026, 20:52 UTC

1 64932C 25158A   26257.86993056  .00014273  00000+0  44334-3 0  2577
2 64932  97.2845 116.2352 0001809  92.4465 233.9365 15.33413047    12

Отслеживайте STARLINK-34705 в реальном времени с AllMySat

Download on the App Store